This demonstration page uses our WeatherBlox Daily Observations layout. Learn more.

Left ArrowRight Arrow

47.50024, -111.30081

Hourly Observations for April 30, 2016

Temp ( °F °C ) Dew Point ( °F °C ) Humidity (%) Winds ( mph kmh ) Pressure ( in mb ) Visibility ( mi km ) Precip ( " mm )
12:53 am 00:53 Clear 40 4.4 34 1.1 79 79 E 7 11 30.07 1018 10 16 0.00 0.00
1:53 am 01:53 Clear 41 5 34 1.1 76 76 E 6 9 30.07 1018 10 16 0.00 0.00
2:53 am 02:53 Clear 39 3.9 34 1.1 82 82 SE 3 6 30.09 1019 10 16 0.00 0.00
3:53 am 03:53 Cloudy 36 2.2 34 1.1 93 93 W 5 7 30.12 1020 10 16 0.00 0.00
4:53 am 04:53 Cloudy 36 2.2 34 1.1 93 93 W 5 7 30.13 1020 10 16 0.00 0.00
5:53 am 05:53 Cloudy 36 2.2 34 1.1 93 93 W 6 9 30.14 1021 10 16 0.00 0.00
6:53 am 06:53 Mostly Cloudy 37 2.8 35 1.7 93 93 NW 3 6 30.17 1022 10 16 0.00 0.00
7:53 am 07:53 Mostly Cloudy 39 3.9 36 2.2 89 89 Calm 30.21 1023 10 16 0.00 0.00
8:53 am 08:53 Cloudy 42 5.6 37 2.8 82 82 Calm 30.23 1024 10 16 0.00 0.00
9:53 am 09:53 Mostly Cloudy 46 7.8 36 2.2 68 68 VRB 5 7 30.24 1024 10 16 0.00 0.00
10:53 am 10:53 Cloudy 48 8.9 37 2.8 66 66 VRB 5 7 30.25 1024 10 16 0.00 0.00
11:53 am 11:53 Cloudy 51 10.6 37 2.8 59 59 VRB 3 6 30.25 1024 10 16 0.00 0.00
12:53 pm 12:53 Cloudy 52 11.1 36 2.2 55 55 NNE 8 13 30.25 1025 10 16 0.00 0.00
1:53 pm 13:53 Cloudy 52 11.1 35 1.7 53 53 undefined N/A 30.25 1024 10 16 0.00 0.00
2:53 pm 14:53 Cloudy 51 10.6 35 1.7 54 54 ENE 10 17 30.28 1025 10 16 0.00 0.00
3:53 pm 15:53 Cloudy 51 10.6 37 2.8 59 59 E 9 15 30.29 1026 10 16 0.00 0.00
4:53 pm 16:53 Cloudy 52 11.1 36 2.2 55 55 E 9 15 30.30 1026 10 16 0.00 0.00
5:53 pm 17:53 Cloudy 53 11.7 35 1.7 51 51 ESE 9 15 30.31 1027 10 16 0.00 0.00
6:53 pm 18:53 Cloudy 52 11.1 35 1.7 53 53 E 13 20 30.32 1027 10 16 0.00 0.00
7:53 pm 19:53 Cloudy 50 10 34 1.1 54 54 ESE 9 15 30.34 1027 10 16 0.00 0.00
8:53 pm 20:53 Mostly Clear 45 7.2 34 1.1 66 66 E 8 13 30.35 1028 10 16 0.00 0.00
9:53 pm 21:53 Clear 42 5.6 33 0.6 71 71 E 6 9 30.37 1029 10 16 0.00 0.00
10:53 pm 22:53 Clear 42 5.6 33 0.6 71 71 ESE 6 9 30.37 1029 10 16 0.00 0.00
11:53 pm 23:53 Partly Cloudy 41 5 33 0.6 73 73 ESE 7 11 30.37 1029 10 16 0.00 0.00

Powered by AerisWeather